Location: Catstown
(52.4386°N, 7.2633°W)
Time: 22:43:35
(UTC+00:00)

Nadezhda 4 Rocket - Pass Details

Date: 18 September 2020
Orbit: 949 x 993 km, 82.9° (Epoch: 20 October)

Event Time Altitude Azimuth Distance (km) Brightness Sun altitude
Rises 20:33:57 0° 348° (NNW) 3,643 7.6 -18.1°
Reaches altitude 10° 20:36:28 10° 346° (NNW) 2,690 6.9 -18.4°
Maximum altitude 20:42:33 68° 265° (W) 1,024 4.2 -19.2°
Drops below altitude 10° 20:48:35 10° 184° (S) 2,670 6.0 -20.0°
Enters shadow 20:49:18 - 183° (S) 2,937 6.2 -20.1°
